GW3531 Weather Reports


time (UTC)temp
C
wind
direction
speed
KPH
gust
KPH
rain 1hr
cm
rain 24hr
cm
rain mn
cm
humidity
%
barometer
mb
20260505181555 24 206 17.7 32.2 0.00 0.00 0.00 45 1009.2
20260505180056 25 187 16.1 33.8 0.00 0.00 0.00 42 1009.2
20260505174558 25 195 17.7 27.4 0.00 0.00 0.00 43 1009.3
20260505173056 24 218 19.3 32.2 0.00 0.00 0.00 44 1009.6
20260505171555 22 175 14.5 24.1 0.00 0.00 0.00 51 1009.8
20260505170057 23 185 14.5 27.4 0.00 0.00 0.00 47 1009.9
20260505164601 21 191 11.3 19.3 0.00 0.00 0.00 52 1010.2
20260505163100 21 194 14.5 22.5 0.00 0.00 0.00 54 1010.3
20260505161553 21 183 11.3 22.5 0.00 0.00 0.00 56 1010.4
20260505153115 21 182 11.3 22.5 0.00 0.00 0.00 52 1010.9
20260505151600 21 176 12.9 22.5 0.00 0.00 0.00 55 1011.1
20260505140107 18 177 17.7 25.7 0.00 0.00 0.00 64 1011.4
20260505124555 18 201 12.9 22.5 0.00 0.00 0.00 62 1011.1
20260505123104 17 170 12.9 24.1 0.00 0.00 0.00 65 1011.2
20260505121556 16 179 11.3 16.1 0.00 0.00 0.00 66 1011.0
20260505120059 16 181 9.7 17.7 0.00 0.00 0.00 67 1011.2
20260505114558 16 165 8.0 19.3 0.00 0.00 0.00 69 1011.0
20260505113101 15 166 8.0 16.1 0.00 0.00 0.00 70 1011.3
20260505111601 15 171 8.0 17.7 0.00 0.00 0.00 69 1011.2
20260505101602 15 173 11.3 16.1 0.00 0.00 0.00 72 1011.1
20260505100057 15 175 9.7 19.3 0.00 0.00 0.00 70 1010.9
20260505094603 15 180 9.7 17.7 0.00 0.00 0.00 69 1010.4
20260505093058 15 171 11.3 19.3 0.00 0.00 0.00 69 1010.2
20260505091600 15 191 11.3 20.9 0.00 0.00 0.00 68 1010.4
20260505090059 15 158 11.3 17.7 0.00 0.00 0.00 68 1010.4
20260505084554 15 165 16.1 25.7 0.00 0.00 0.00 67 1010.2
20260505083100 15 179 9.7 17.7 0.00 0.00 0.00 66 1010.3
20260505081601 16 179 12.9 19.3 0.00 0.00 0.00 65 1010.3
20260505080059 16 163 9.7 22.5 0.00 0.00 0.00 65 1010.2
20260505074610 16 162 12.9 19.3 0.00 0.00 0.00 65 1010.3
20260505073100 16 176 12.9 19.3 0.00 0.00 0.00 64 1010.1
20260505071600 16 163 8.0 16.1 0.00 0.00 0.00 65 1010.2
20260505070056 16 167 12.9 22.5 0.00 0.00 0.00 62 1010.2
20260505064556 16 166 12.9 20.9 0.00 0.00 0.00 63 1010.1
20260505063058 16 177 12.9 22.5 0.00 0.00 0.00 63 1010.3
20260505061628 16 188 12.9 22.5 0.00 0.00 0.00 62 1010.4
20260505060100 16 179 12.9 25.7 0.00 0.00 0.00 61 1010.3
20260505054616 16 184 12.9 25.7 0.00 0.00 0.00 61 1010.4
20260505053057 16 173 16.1 25.7 0.00 0.00 0.00 60 1010.4
20260505051559 16 189 17.7 30.6 0.00 0.00 0.00 59 1010.7
20260505041602 16 174 16.1 27.4 0.00 0.00 0.00 59 1010.8
20260505034600 16 177 20.9 35.4 0.00 0.00 0.00 59 1011.0
20260505033058 16 183 17.7 29.0 0.00 0.00 0.00 58 1010.9
20260505031601 17 188 16.1 29.0 0.00 0.00 0.00 55 1011.0
20260505030056 17 193 17.7 29.0 0.00 0.00 0.00 54 1011.1
20260505024608 17 178 14.5 30.6 0.00 0.00 0.00 54 1011.2
20260505023101 17 210 19.3 37.0 0.00 0.00 0.00 52 1011.2
20260505021613 17 193 16.1 29.0 0.00 0.00 0.00 52 1011.3
20260505014555 17 179 16.1 27.4 0.00 0.00 0.00 53 1011.2
20260505013058 17 193 12.9 29.0 0.00 0.00 0.00 55 1011.2
20260505011558 17 167 14.5 24.1 0.00 0.00 0.00 57 1010.9
20260505010057 17 207 17.7 30.6 0.00 0.00 0.00 58 1010.9
20260505004557 17 140 14.5 27.4 0.00 0.00 0.00 57 1010.4
20260505003054 18 177 9.7 17.7 0.00 0.00 0.00 52 1010.2
20260505001557 18 205 9.7 17.7 0.00 0.00 0.00 50 1010.0
20260505000058 19 132 11.3 19.3 0.00 0.00 0.00 46 1009.8
20260504234555 19 173 11.3 19.3 0.00 0.00 0.00 46 1009.6
20260504233101 20 156 8.0 24.1 0.00 0.00 0.00 43 1009.4
20260504231557 20 202 12.9 22.5 0.00 0.00 0.00 44 1009.2
20260504230058 20 206 14.5 24.1 0.00 0.00 0.00 40 1009.0
20260504224554 20 199 9.7 17.7 0.00 0.00 0.00 43 1009.1
20260504223102 20 191 11.3 20.9 0.00 0.00 0.00 42 1009.1
20260504221606 21 177 16.1 29.0 0.00 0.00 0.00 35 1009.2
20260504220132 20 175 14.5 32.2 0.00 0.00 0.00 37 1009.4
20260504214555 20 193 14.5 27.4 0.00 0.00 0.00 36 1009.4
20260504213122 21 168 14.5 35.4 0.00 0.00 0.00 36 1009.5
20260504211555 20 201 11.3 22.5 0.00 0.00 0.00 36 1009.5
20260504210101 20 183 12.9 37.0 0.00 0.00 0.00 36 1009.5
20260504204609 21 216 11.3 32.2 0.00 0.00 0.00 36 1009.4
20260504203056 20 188 14.5 25.7 0.00 0.00 0.00 36 1009.5
20260504201609 20 200 12.9 29.0 0.00 0.00 0.00 36 1009.4
20260504200107 19 204 9.7 20.9 0.00 0.00 0.00 41 1009.7
20260504194552 20 198 25.7 37.0 0.00 0.00 0.00 38 1009.9
20260504193055 19 191 11.3 25.7 0.00 0.00 0.00 40 1009.9
20260504191555 19 196 20.9 30.6 0.00 0.00 0.00 37 1010.1
20260504190054 19 202 14.5 30.6 0.00 0.00 0.00 36 1010.2
20260504184600 19 233 16.1 35.4 0.00 0.00 0.00 39 1010.7
20260504183056 19 206 16.1 33.8 0.00 0.00 0.00 38 1010.6